DIY-1 (ARDUIQUBE) (47963 NORAD) Tracking and Keplerian Element Data

This shows tracking and keplerian element data for the satellite.

Feedback or suggestion? Click here.




ElementValue
Catalog47963
NameDIY-1 (ARDUIQUBE)
Epoch Orbit12369
Epoch Day175.22410101
Epoch Year2023
RAAN84.3035
Inclination97.4915
Eccentricity0.0006757
Argument of Perigee166.177
Mean Anonmoly193.9677
Mean Motion15.67179611
Decay Rate0.00407073
L11 47963U 21022AH 23175.22410101 .00407073 00000+0 36282-2 0 9998
L22 47963 97.4915 84.3035 0006757 166.1770 193.9677 15.67179611123699



Live tracking and technical data element details for DIY-1 (ARDUIQUBE) (NORAD 47963). DIY-1 (ARDUIQUBE) can be tracked NOW for your location showing map with azimuth and elevation plus other details from your city location.







IsCatalogInMostPopularTable: catalog: 47963, numindb: 140
Update: records affected: 1



GetName: 47963 DIY-1 (ARDUIQUBE)

Hit Count: updated at: Fri, 24 Jan 2025 23:01:29 GMT